Location: Moondance
(40.1328°N, 106.5113°W)
Time: 03:57:08
(UTC-06:00)

Envisat - Visible Passes

Search period start: 19 April 2018 00:00
Search period end: 29 April 2018 00:00
Orbit: 764 x 766 km, 98.2° (Epoch: 18 April)

Date Brightness Start Highest point End Pass type
(mag) Time Alt. Az. Time Alt. Az. Time Alt. Az.
19 Apr 4.1 21:00:13 10° S 21:05:02 44° W 21:09:53 10° NNW visible
20 Apr 3.0 20:23:12 10° SSE 20:28:16 81° ENE 20:33:21 10° N visible
20 Apr 5.9 22:06:47 10° W 22:07:52 11° W 22:08:57 10° WNW visible
21 Apr 5.1 21:26:38 10° SSW 21:30:46 25° W 21:34:54 10° NW visible
22 Apr 3.7 20:48:53 10° S 20:53:51 57° W 20:58:51 10° NNW visible
23 Apr 5.7 21:53:59 10° WSW 21:56:35 14° W 21:59:12 10° WNW visible
24 Apr 4.7 21:15:03 10° SSW 21:19:32 32° W 21:24:03 10° NNW visible
25 Apr 3.3 20:37:38 10° S 20:42:41 73° WSW 20:47:46 10° NNW visible
26 Apr 5.5 21:41:55 10° SW 21:45:19 18° W 21:48:44 10° NW visible
27 Apr 4.3 21:03:35 10° SSW 21:08:20 40° W 21:13:06 10° NNW visible
28 Apr 3.0 20:26:28 10° SSE 20:31:32 89° E 20:36:38 10° NNW visible
